Weather History for Punta Gorda, FL

Change the Weather History Date:

Friday, March 29, 2013

  Actual Average Record
Temperature  
Mean Temperature 60 °F -  
Max Temperature 78 °F 79 °F 88 °F (2002)
Min Temperature 44 °F 56 °F 44 °F (2013)
Degree Days  
Heating Degree Days 4    
Growing Degree Days 10 (Base 50)    
Moisture  
Dew Point 40 °F    
Average Humidity 55    
Maximum Humidity 89    
Minimum Humidity 20    
Precipitation  
Precipitation 0.00 in - - ()
Sea Level Pressure  
Sea Level Pressure 30.29 in    
Wind  
Wind Speed 5 mph (NE)    
Max Wind Speed 14 mph    
Max Gust Speed -    
Visibility 10 miles    
Events      
Averages and records for this station are not official NWS values.
T = Trace of Precipitation, MM = Missing Value Source: NWS Daily Summary

Daily Weather History Graph

Daily Weather History Graph

Search for Another Location

Airport:

Trip Planner

Search our weather history database for the weather conditions in past years. The results will help you decide how hot, cold, wet, or windy it might be!

Date:

Astronomy

Mar. 29, 2013 Rise Set
Actual Time 7:21 AM EDT 7:43 PM EDT
Civil Twilight 6:58 AM EDT 8:07 PM EDT
Nautical Twilight 6:31 AM EDT 8:34 PM EDT
Astronomical Twilight 6:03 AM EDT 9:02 PM EDT
Moon 10:23 PM EDT (3/29) 8:45 AM EDT (3/29)
Length of Visible Light 13h 08m
Length of Day
12h 22m
Waning Gibbous, 93% of the Moon is Illuminated
Mar 29
Waning Gibbous
Apr 3
Last Quarter
Apr 10
New
Apr 18
First Quarter
Apr 25
Full

Hourly Weather History & Observations

Time (EDT) Temp. Windchill Dew Point Humidity Pressure Visibility Wind Dir Wind Speed Gust Speed Precip Events Conditions
12:53 AM 46.9 °F - 39.0 °F 74% 30.30 in 10.0 mi NNE 4.6 mph - N/A   Clear
1:53 AM 46.9 °F - 39.0 °F 74% 30.30 in 10.0 mi NNE 4.6 mph - N/A   Clear
2:53 AM 44.1 °F 42.5 °F 39.0 °F 82% 30.30 in 10.0 mi NNE 3.5 mph - N/A   Clear
3:53 AM 44.1 °F 41.5 °F 39.0 °F 82% 30.28 in 10.0 mi NE 4.6 mph - N/A   Clear
4:53 AM 44.1 °F - 39.9 °F 85% 30.28 in 10.0 mi Calm Calm - N/A   Clear
5:53 AM 45.0 °F - 41.0 °F 86% 30.29 in 10.0 mi Calm Calm - N/A   Clear
6:53 AM 44.1 °F 42.5 °F 41.0 °F 89% 30.30 in 10.0 mi NE 3.5 mph - N/A   Clear
7:53 AM 44.1 °F 41.5 °F 41.0 °F 89% 30.32 in 10.0 mi NE 4.6 mph - N/A   Clear
8:53 AM 55.9 °F - 46.9 °F 72% 30.34 in 10.0 mi ENE 8.1 mph - N/A   Clear
9:53 AM 64.0 °F - 44.1 °F 48% 30.35 in 10.0 mi ENE 9.2 mph - N/A   Clear
10:53 AM 69.1 °F - 37.9 °F 32% 30.36 in 10.0 mi ENE 13.8 mph - N/A   Clear
11:53 AM 72.0 °F - 36.0 °F 27% 30.34 in 10.0 mi East 8.1 mph - N/A   Clear
12:53 PM 73.0 °F - 33.1 °F 23% 30.32 in 10.0 mi ESE 5.8 mph - N/A   Clear
1:53 PM 75.0 °F - 34.0 °F 22% 30.29 in 10.0 mi ENE 5.8 mph - N/A   Clear
2:53 PM 75.9 °F - 33.1 °F 21% 30.27 in 10.0 mi East 9.2 mph - N/A   Clear
3:53 PM 77.0 °F - 33.1 °F 20% 30.25 in 10.0 mi ENE 9.2 mph - N/A   Clear
4:53 PM 75.9 °F - 34.0 °F 22% 30.23 in 10.0 mi Calm Calm - N/A   Clear
5:53 PM 75.0 °F - 34.0 °F 22% 30.22 in 10.0 mi Calm Calm - N/A   Clear
6:53 PM 72.0 °F - 43.0 °F 35% 30.22 in 10.0 mi West 10.4 mph - N/A   Clear
7:53 PM 66.0 °F - 44.1 °F 45% 30.24 in 10.0 mi WNW 4.6 mph - N/A   Clear
8:53 PM 61.0 °F - 46.0 °F 58% 30.25 in 10.0 mi NNW 5.8 mph - N/A   Clear
9:53 PM 59.0 °F - 46.0 °F 62% 30.27 in 10.0 mi Calm Calm - N/A   Clear
10:53 PM 57.9 °F - 45.0 °F 62% 30.28 in 10.0 mi NW 3.5 mph - N/A   Clear
11:53 PM 53.1 °F - 46.0 °F 77% 30.29 in 10.0 mi Calm Calm - N/A   Clear